Regional Weather Roundup
Issued by NWS

Home | Current Version | Previous Version | Graphics & Text | Print | Product List | Glossary On
Versions: 1 2 3 4 5 6 7 8 9 10 11 12 13 14 15 16 17 18 19 20 21 22 23 24 25 26 27 28 29 30 31 32 33 34 35 36 37 38 39 40 41 42 43 44 45 46 47 48 49 50
000
ASUS43 KOAX 210710
RWRNE

WEATHER ROUNDUP FOR NEBRASKA
NATIONAL WEATHER SERVICE OMAHA NE
200 AM CDT TUE APR 21 2015

NOTES: SATELLITE DATA IS BEING USED TO AUGMENT CLOUD COVER ABOVE
       12000 FEET.
       "FAIR" INDICATES FEW OR NO CLOUDS BELOW 12,000 FEET WITH NO
       SIGNIFICANT WEATHER AND/OR OBSTRUCTIONS TO VISIBILITY.

  * THESE STATIONS DO NOT REPORT WEATHER SUCH AS RAIN...SNOW OR FOG.

NEZ001>004-019>022-054>056-210800-
NEBRASKA PANHANDLE

CITY           SKY/WX    TMP DP  RH WIND       PRES   REMARKS
SCOTTSBLUFF    CLEAR     34  27  75 N8        29.92S WCI  27
ALLIANCE       CLEAR     25  21  85 CALM      29.92R
CHADRON        CLEAR     25  21  85 W7        29.93S WCI  17
KIMBALL        CLEAR     32  28  85 NW9       29.92R WCI  24
SIDNEY         CLEAR     32  27  81 NW12      29.92S WCI  23
$$

NEZ057>060-069>072-079>082-210800-
SOUTHWEST NEBRASKA

CITY           SKY/WX    TMP DP  RH WIND       PRES   REMARKS
NORTH PLATTE   CLEAR     30  26  85 CALM      29.91S
IMPERIAL       CLEAR     36  27  69 W9        29.90S WCI  29
LEXINGTON      PTCLDY    33  30  90 NW6       29.90S WCI  27
MCCOOK         CLEAR     35  29  78 NW7       29.89S WCI  29
OGALLALA       CLEAR     32  28  84 CALM      29.91S
$$

NEZ005>010-023>029-035>040-094-210800-
NORTH CENTRAL NEBRASKA

CITY           SKY/WX    TMP DP  RH WIND       PRES   REMARKS
VALENTINE      PTCLDY    36  25  64 NW6       29.88R WCI  31
AINSWORTH      MOCLDY    41  27  57 W7        29.87S
BROKEN BOW     CLOUDY    41  28  60 VRB3      29.89R
O`NEILL        MOCLDY    39  24  55 W9        29.84R WCI  33
ORD            CLOUDY    43  29  57 W8        29.86R
THEDFORD       MOCLDY    37  28  70 W3        29.90S
$$

NEZ041-046>049-061>064-073>077-083>087-210800-
SOUTH CENTRAL NEBRASKA

CITY           SKY/WX    TMP DP  RH WIND       PRES   REMARKS
GRAND ISLAND   CLOUDY    43  31  62 W9        29.88R
AURORA         CLOUDY    42  32  67 W8        29.86S
HASTINGS       CLOUDY    40  31  70 W5        29.88R
HEBRON         MOCLDY    40  29  65 W8        29.88F WCI  34
HOLDREGE       CLEAR     36  28  73 CALM      29.90R
KEARNEY *      PTCLDY    41  27  56 W6        29.89S
YORK           CLOUDY    45  32  61 W7        29.86R
$$

NEZ011>018-030>034-042>045-210800-
NORTHEAST NEBRASKA

CITY           SKY/WX    TMP DP  RH WIND       PRES   REMARKS
NORFOLK        MOCLDY    41  23  48 W10       29.81S
ALBION         CLOUDY    42  23  47 NW3       29.84R
BLAIR          CLOUDY    42  22  43 W7        29.80S
COLUMBUS *     MOCLDY    39  25  56 W5        29.85R
FREMONT        MOCLDY    40  29  64 W8        29.82R WCI  34
TEKAMAH        CLOUDY    41  24  51 W13       29.79S
WAYNE          PTCLDY    38  16  40 W10       29.80R WCI  31
$$

NEZ050>053-065>068-078-088>093-210800-
SOUTHEAST NEBRASKA

CITY           SKY/WX    TMP DP  RH WIND       PRES   REMARKS
LINCOLN        MOCLDY    45  30  55 W6        29.85S
OMAHA EPPLEY   CLOUDY    47  21  35 W10       29.79F
BEATRICE       CLOUDY    42  32  66 W6        29.86S
NEBRASKA CITY  MOCLDY    43  25  49 W9        29.83S
PLATTSMOUTH    MOCLDY    41  24  50 W8        29.81S
$$

NEZ044-045-051>053-067-210800-
OMAHA AREA

CITY           SKY/WX    TMP DP  RH WIND       PRES   REMARKS
OMAHA EPPLEY   CLOUDY    47  21  35 W10       29.79F
BLAIR          CLOUDY    42  22  43 W7        29.80S
FREMONT        MOCLDY    40  29  64 W8        29.82R WCI  34
MILLARD        MOCLDY    45  26  46 NW5       29.81S
OFFUTT AFB     CLOUDY    40  28  62 NW7       29.80S
PLATTSMOUTH    MOCLDY    41  24  50 W8        29.81S
WAHOO          FAIR      45  25  46 W10       29.82S
$$


USA.gov is the U.S. government's official web portal to all federal, state and local government web resources and services.